owner,sensor,date,latitude,longitude,vertical_datum,direction_of_sea_water_velocity,sea_water_speed,upward_sea_water_velocity,qcFlag 
TABS,ioos:station:wmo:42043:1,2017-07-01T00:00:00Z,28.9818,-94.9186,2.0,84.9117517,8.794657469,-99999.0,'11133222,11111222,99999999' 
TABS,ioos:station:wmo:42043:1,2017-07-01T00:30:00Z,28.9818,-94.9186,2.0,107.2369637,8.470430922,-99999.0,'11133222,11111222,99999999' 
TABS,ioos:station:wmo:42043:1,2017-07-01T01:00:00Z,28.9818,-94.9186,2.0,68.97304342,7.831487726,-99999.0,'11133222,11111222,99999999' 
TABS,ioos:station:wmo:42043:1,2017-07-01T01:30:00Z,28.9818,-94.9186,2.0,82.55469256,8.874823942,-99999.0,'11133222,11111222,99999999' 
TABS,ioos:station:wmo:42043:1,2017-07-01T02:00:00Z,28.9818,-94.9186,2.0,92.80062603,8.800511349,-99999.0,'11133222,11111222,99999999' 
TABS,ioos:station:wmo:42043:1,2017-07-01T02:30:00Z,28.9818,-94.9186,2.0,93.93477286,7.577862495,-99999.0,'11133222,11111222,99999999' 
TABS,ioos:station:wmo:42043:1,2017-07-01T03:00:00Z,28.9818,-94.9186,2.0,57.7764348,10.29583411,-99999.0,'11111222,11111222,99999999' 
TABS,ioos:station:wmo:42043:1,2017-07-01T03:30:00Z,28.9818,-94.9186,2.0,65.29513649,12.53753165,-99999.0,'11111222,11111222,99999999' 
TABS,ioos:station:wmo:42043:1,2017-07-01T04:00:00Z,28.9818,-94.9186,2.0,65.60574024,10.50811591,-99999.0,'11111222,11111222,99999999' 
TABS,ioos:station:wmo:42043:1,2017-07-01T04:30:00Z,28.9818,-94.9186,2.0,57.4250285,13.54002216,-99999.0,'11111222,11111222,99999999' 
TABS,ioos:station:wmo:42043:1,2017-07-01T05:00:00Z,28.9818,-94.9186,2.0,50.28308756,11.59631407,-99999.0,'11111222,11111222,99999999' 
TABS,ioos:station:wmo:42043:1,2017-07-01T05:30:00Z,28.9818,-94.9186,2.0,35.72510959,13.51269773,-99999.0,'11111222,11111222,99999999' 
TABS,ioos:station:wmo:42043:1,2017-07-01T06:00:00Z,28.9818,-94.9186,2.0,43.62456398,18.26275992,-99999.0,'11111222,11111222,99999999' 
TABS,ioos:station:wmo:42043:1,2017-07-01T06:30:00Z,28.9818,-94.9186,2.0,48.05921561,14.70756608,-99999.0,'11111222,11111222,99999999' 
TABS,ioos:station:wmo:42043:1,2017-07-01T07:00:00Z,28.9818,-94.9186,2.0,74.90846261,12.90508427,-99999.0,'11111222,11111222,99999999' 
TABS,ioos:station:wmo:42043:1,2017-07-01T07:30:00Z,28.9818,-94.9186,2.0,66.48429061,13.28316227,-99999.0,'11111222,11111222,99999999' 
TABS,ioos:station:wmo:42043:1,2017-07-01T08:00:00Z,28.9818,-94.9186,2.0,67.91894811,15.21605731,-99999.0,'11111222,11111222,99999999' 
TABS,ioos:station:wmo:42043:1,2017-07-01T08:30:00Z,28.9818,-94.9186,2.0,63.92789667,17.15574831,-99999.0,'11111222,11111222,99999999' 
TABS,ioos:station:wmo:42043:1,2017-07-01T09:00:00Z,28.9818,-94.9186,2.0,59.01310986,16.93720166,-99999.0,'11111222,11111222,99999999' 
TABS,ioos:station:wmo:42043:1,2017-07-01T09:30:00Z,28.9818,-94.9186,2.0,64.20615466,20.26955599,-99999.0,'11111222,11111222,99999999' 
TABS,ioos:station:wmo:42043:1,2017-07-01T10:00:00Z,28.9818,-94.9186,2.0,66.89807155,21.02612898,-99999.0,'11111222,11111222,99999999' 
TABS,ioos:station:wmo:42043:1,2017-07-01T10:30:00Z,28.9818,-94.9186,2.0,67.74614674,19.75117212,-99999.0,'11111222,11111222,99999999' 
TABS,ioos:station:wmo:42043:1,2017-07-01T11:00:00Z,28.9818,-94.9186,2.0,61.45116579,23.77023349,-99999.0,'11111222,11111222,99999999' 
TABS,ioos:station:wmo:42043:1,2017-07-01T11:30:00Z,28.9818,-94.9186,2.0,66.80432123,26.32825289,-99999.0,'11111222,11111222,99999999' 
TABS,ioos:station:wmo:42043:1,2017-07-01T12:00:00Z,28.9818,-94.9186,2.0,67.68016241,24.83034031,-99999.0,'11111222,11111222,99999999' 
TABS,ioos:station:wmo:42043:1,2017-07-01T12:30:00Z,28.9818,-94.9186,2.0,64.24683823,22.09456947,-99999.0,'11111222,11111222,99999999' 
TABS,ioos:station:wmo:42043:1,2017-07-01T13:00:00Z,28.9818,-94.9186,2.0,73.37694112,24.5040915,-99999.0,'11111222,11111222,99999999' 
TABS,ioos:station:wmo:42043:1,2017-07-01T13:30:00Z,28.9818,-94.9186,2.0,65.2907744,27.34356414,-99999.0,'11111222,11111222,99999999' 
TABS,ioos:station:wmo:42043:1,2017-07-01T14:00:00Z,28.9818,-94.9186,2.0,64.73622761,23.82921316,-99999.0,'11111222,11111222,99999999' 
TABS,ioos:station:wmo:42043:1,2017-07-01T14:30:00Z,28.9818,-94.9186,2.0,64.49938203,17.81559149,-99999.0,'11111222,11111222,99999999' 
TABS,ioos:station:wmo:42043:1,2017-07-01T15:00:00Z,28.9818,-94.9186,2.0,60.11325053,19.52684818,-99999.0,'11111222,11111222,99999999' 
TABS,ioos:station:wmo:42043:1,2017-07-01T15:30:00Z,28.9818,-94.9186,2.0,46.1296049,17.93571298,-99999.0,'11111222,11111222,99999999' 
TABS,ioos:station:wmo:42043:1,2017-07-01T16:00:00Z,28.9818,-94.9186,2.0,84.43923689,12.17730676,-99999.0,'11111222,11111222,99999999' 
TABS,ioos:station:wmo:42043:1,2017-07-01T16:30:00Z,28.9818,-94.9186,2.0,86.89428432,14.58141625,-99999.0,'11111222,11111222,99999999' 
TABS,ioos:station:wmo:42043:1,2017-07-01T17:00:00Z,28.9818,-94.9186,2.0,88.63847603,11.36320817,-99999.0,'11111222,11111222,99999999' 
TABS,ioos:station:wmo:42043:1,2017-07-01T17:30:00Z,28.9818,-94.9186,2.0,73.15474317,10.14532897,-99999.0,'11111222,11111222,99999999' 
TABS,ioos:station:wmo:42043:1,2017-07-01T18:00:00Z,28.9818,-94.9186,2.0,81.57536304,9.077956819,-99999.0,'11133222,11111222,99999999' 
TABS,ioos:station:wmo:42043:1,2017-07-01T18:30:00Z,28.9818,-94.9186,2.0,81.1572092,12.62000396,-99999.0,'11111222,11111222,99999999' 
TABS,ioos:station:wmo:42043:1,2017-07-01T19:00:00Z,28.9818,-94.9186,2.0,99.39495949,8.392574099,-99999.0,'11133222,11111222,99999999' 
TABS,ioos:station:wmo:42043:1,2017-07-01T19:30:00Z,28.9818,-94.9186,2.0,90.8605023,12.6514268,-99999.0,'11111222,11111222,99999999' 
TABS,ioos:station:wmo:42043:1,2017-07-01T20:00:00Z,28.9818,-94.9186,2.0,112.330847,12.65939177,-99999.0,'11111222,11111222,99999999' 
TABS,ioos:station:wmo:42043:1,2017-07-01T20:30:00Z,28.9818,-94.9186,2.0,85.37961794,12.28993897,-99999.0,'11111222,11111222,99999999' 
TABS,ioos:station:wmo:42043:1,2017-07-01T21:00:00Z,28.9818,-94.9186,2.0,65.35465664,8.94481973,-99999.0,'11133222,11111222,99999999' 
TABS,ioos:station:wmo:42043:1,2017-07-01T21:30:00Z,28.9818,-94.9186,2.0,65.87907329,8.809177033,-99999.0,'11133222,11111222,99999999' 
TABS,ioos:station:wmo:42043:1,2017-07-01T22:00:00Z,28.9818,-94.9186,2.0,46.15462144,10.17733266,-99999.0,'11111222,11111222,99999999' 
TABS,ioos:station:wmo:42043:1,2017-07-01T22:30:00Z,28.9818,-94.9186,2.0,44.87306409,9.567178267,-99999.0,'11133222,11111222,99999999' 
TABS,ioos:station:wmo:42043:1,2017-07-01T23:00:00Z,28.9818,-94.9186,2.0,28.69680777,18.03518783,-99999.0,'11111222,11111222,99999999' 
TABS,ioos:station:wmo:42043:1,2017-07-01T23:30:00Z,28.9818,-94.9186,2.0,19.40036278,15.955955,-99999.0,'11111222,11111222,99999999' 
TABS,ioos:station:wmo:42043:1,2017-07-02T00:00:00Z,28.9818,-94.9186,2.0,34.26477811,15.48800826,-99999.0,'11111222,11111222,99999999' 
TABS,ioos:station:wmo:42043:1,2017-07-02T00:30:00Z,28.9818,-94.9186,2.0,38.58658352,13.42002235,-99999.0,'11111222,11111222,99999999' 
TABS,ioos:station:wmo:42043:1,2017-07-02T01:00:00Z,28.9818,-94.9186,2.0,41.15074788,15.2726062,-99999.0,'11111222,11111222,99999999' 
TABS,ioos:station:wmo:42043:1,2017-07-02T01:30:00Z,28.9818,-94.9186,2.0,37.69950648,8.012839696,-99999.0,'11133222,11111222,99999999' 
TABS,ioos:station:wmo:42043:1,2017-07-02T02:00:00Z,28.9818,-94.9186,2.0,34.70649604,19.38982207,-99999.0,'11111222,11111222,99999999' 
TABS,ioos:station:wmo:42043:1,2017-07-02T02:30:00Z,28.9818,-94.9186,2.0,38.71600703,15.95628089,-99999.0,'11111222,11111222,99999999' 
TABS,ioos:station:wmo:42043:1,2017-07-02T03:00:00Z,28.9818,-94.9186,2.0,49.36061594,19.53025345,-99999.0,'11111222,11111222,99999999' 
TABS,ioos:station:wmo:42043:1,2017-07-02T03:30:00Z,28.9818,-94.9186,2.0,54.04248201,18.71637251,-99999.0,'11111222,11111222,99999999' 
TABS,ioos:station:wmo:42043:1,2017-07-02T04:00:00Z,28.9818,-94.9186,2.0,58.49818216,19.90328867,-99999.0,'11111222,11111222,99999999' 
TABS,ioos:station:wmo:42043:1,2017-07-02T04:30:00Z,28.9818,-94.9186,2.0,59.7782324,20.26425671,-99999.0,'11111222,11111222,99999999' 
TABS,ioos:station:wmo:42043:1,2017-07-02T05:00:00Z,28.9818,-94.9186,2.0,61.085873,19.42091913,-99999.0,'11111222,11111222,99999999' 
TABS,ioos:station:wmo:42043:1,2017-07-02T05:30:00Z,28.9818,-94.9186,2.0,52.52749884,21.10516761,-99999.0,'11111222,11111222,99999999' 
TABS,ioos:station:wmo:42043:1,2017-07-02T06:00:00Z,28.9818,-94.9186,2.0,61.12835459,19.77839478,-99999.0,'11111222,11111222,99999999' 
TABS,ioos:station:wmo:42043:1,2017-07-02T06:30:00Z,28.9818,-94.9186,2.0,52.61185592,21.88689562,-99999.0,'11111222,11111222,99999999' 
TABS,ioos:station:wmo:42043:1,2017-07-02T07:00:00Z,28.9818,-94.9186,2.0,63.51746761,21.75249181,-99999.0,'11111222,11111222,99999999' 
TABS,ioos:station:wmo:42043:1,2017-07-02T07:30:00Z,28.9818,-94.9186,2.0,53.04544651,22.98802514,-99999.0,'11111222,11111222,99999999' 
TABS,ioos:station:wmo:42043:1,2017-07-02T08:00:00Z,28.9818,-94.9186,2.0,63.5433574,26.01446136,-99999.0,'11111222,11111222,99999999' 
TABS,ioos:station:wmo:42043:1,2017-07-02T08:30:00Z,28.9818,-94.9186,2.0,63.74170556,22.55777693,-99999.0,'11111222,11111222,99999999' 
TABS,ioos:station:wmo:42043:1,2017-07-02T09:00:00Z,28.9818,-94.9186,2.0,63.6229297,25.90722293,-99999.0,'11111222,11111222,99999999' 
TABS,ioos:station:wmo:42043:1,2017-07-02T09:30:00Z,28.9818,-94.9186,2.0,69.89326051,26.12204624,-99999.0,'11111222,11111222,99999999' 
TABS,ioos:station:wmo:42043:1,2017-07-02T10:00:00Z,28.9818,-94.9186,2.0,68.55439041,27.51500863,-99999.0,'11111222,11111222,99999999' 
TABS,ioos:station:wmo:42043:1,2017-07-02T10:30:00Z,28.9818,-94.9186,2.0,68.42617873,28.99098481,-99999.0,'11111222,11111222,99999999' 
TABS,ioos:station:wmo:42043:1,2017-07-02T11:00:00Z,28.9818,-94.9186,2.0,63.08144254,30.43793686,-99999.0,'11111222,11111222,99999999' 
TABS,ioos:station:wmo:42043:1,2017-07-02T11:30:00Z,28.9818,-94.9186,2.0,66.45986042,33.47585697,-99999.0,'11111222,11111222,99999999' 
TABS,ioos:station:wmo:42043:1,2017-07-02T12:00:00Z,28.9818,-94.9186,2.0,69.80797457,32.79559117,-99999.0,'11111222,11111222,99999999' 
TABS,ioos:station:wmo:42043:1,2017-07-02T12:30:00Z,28.9818,-94.9186,2.0,68.10751288,35.02589899,-99999.0,'11111222,11111222,99999999' 
TABS,ioos:station:wmo:42043:1,2017-07-02T13:00:00Z,28.9818,-94.9186,2.0,69.30055849,38.33460708,-99999.0,'11111222,11111222,99999999' 
TABS,ioos:station:wmo:42043:1,2017-07-02T13:30:00Z,28.9818,-94.9186,2.0,65.92805019,41.43330665,-99999.0,'11111222,11111222,99999999' 
TABS,ioos:station:wmo:42043:1,2017-07-02T14:00:00Z,28.9818,-94.9186,2.0,59.81419599,39.16016599,-99999.0,'11111222,11111222,99999999' 
TABS,ioos:station:wmo:42043:1,2017-07-02T14:30:00Z,28.9818,-94.9186,2.0,65.84860946,36.63693492,-99999.0,'11111222,11111222,99999999' 
TABS,ioos:station:wmo:42043:1,2017-07-02T15:00:00Z,28.9818,-94.9186,2.0,59.14192011,37.21868617,-99999.0,'11111222,11111222,99999999' 
TABS,ioos:station:wmo:42043:1,2017-07-02T15:30:00Z,28.9818,-94.9186,2.0,76.00637884,32.62832665,-99999.0,'11111222,11111222,99999999' 
TABS,ioos:station:wmo:42043:1,2017-07-02T16:00:00Z,28.9818,-94.9186,2.0,74.15772515,29.01197167,-99999.0,'11111222,11111222,99999999' 
TABS,ioos:station:wmo:42043:1,2017-07-02T16:30:00Z,28.9818,-94.9186,2.0,70.60748009,26.1114113,-99999.0,'11111222,11111222,99999999' 
TABS,ioos:station:wmo:42043:1,2017-07-02T17:00:00Z,28.9818,-94.9186,2.0,72.05500911,28.10735135,-99999.0,'11111222,11111222,99999999' 
TABS,ioos:station:wmo:42043:1,2017-07-02T17:30:00Z,28.9818,-94.9186,2.0,65.37649279,21.6486212,-99999.0,'11111222,11111222,99999999' 
TABS,ioos:station:wmo:42043:1,2017-07-02T18:00:00Z,28.9818,-94.9186,2.0,58.84710193,27.00431447,-99999.0,'11111222,11111222,99999999' 
TABS,ioos:station:wmo:42043:1,2017-07-02T18:30:00Z,28.9818,-94.9186,2.0,53.18981827,26.90401457,-99999.0,'11111222,11111222,99999999' 
TABS,ioos:station:wmo:42043:1,2017-07-02T19:00:00Z,28.9818,-94.9186,2.0,60.39483785,29.00684919,-99999.0,'11111222,11111222,99999999' 
TABS,ioos:station:wmo:42043:1,2017-07-02T19:30:00Z,28.9818,-94.9186,2.0,59.18805358,30.43596064,-99999.0,'11111222,11111222,99999999' 
TABS,ioos:station:wmo:42043:1,2017-07-02T20:00:00Z,28.9818,-94.9186,2.0,64.90013945,30.43389065,-99999.0,'11111222,11111222,99999999' 
TABS,ioos:station:wmo:42043:1,2017-07-02T20:30:00Z,28.9818,-94.9186,2.0,67.06107488,32.45665725,-99999.0,'11111222,11111222,99999999' 
TABS,ioos:station:wmo:42043:1,2017-07-02T21:00:00Z,28.9818,-94.9186,2.0,65.69212521,34.86051348,-99999.0,'11111222,11111222,99999999' 
TABS,ioos:station:wmo:42043:1,2017-07-02T21:30:00Z,28.9818,-94.9186,2.0,70.4498253,39.80480499,-99999.0,'11111222,11111222,99999999' 
TABS,ioos:station:wmo:42043:1,2017-07-02T22:00:00Z,28.9818,-94.9186,2.0,70.92368449,40.11284333,-99999.0,'11111222,11111222,99999999' 
TABS,ioos:station:wmo:42043:1,2017-07-02T22:30:00Z,28.9818,-94.9186,2.0,67.90205748,39.10239123,-99999.0,'11111222,11111222,99999999' 
TABS,ioos:station:wmo:42043:1,2017-07-02T23:00:00Z,28.9818,-94.9186,2.0,71.17298912,42.04979072,-99999.0,'11111222,11111222,99999999' 
TABS,ioos:station:wmo:42043:1,2017-07-02T23:30:00Z,28.9818,-94.9186,2.0,67.67921499,39.94285168,-99999.0,'11111222,11111222,99999999' 
TABS,ioos:station:wmo:42043:1,2017-07-03T00:00:00Z,28.9818,-94.9186,2.0,68.76995002,45.06864209,-99999.0,'11111222,11111222,99999999' 
TABS,ioos:station:wmo:42043:1,2017-07-03T00:30:00Z,28.9818,-94.9186,2.0,67.02635297,46.83473924,-99999.0,'11111222,11111222,99999999' 
TABS,ioos:station:wmo:42043:1,2017-07-03T01:00:00Z,28.9818,-94.9186,2.0,63.91850702,42.39735841,-99999.0,'11111222,11111222,99999999' 
TABS,ioos:station:wmo:42043:1,2017-07-03T01:30:00Z,28.9818,-94.9186,2.0,60.24376308,43.5411541,-99999.0,'11111222,11111222,99999999' 
TABS,ioos:station:wmo:42043:1,2017-07-03T02:00:00Z,28.9818,-94.9186,2.0,63.04437874,41.9809159,-99999.0,'11111222,11111222,99999999' 
TABS,ioos:station:wmo:42043:1,2017-07-03T02:30:00Z,28.9818,-94.9186,2.0,61.30791444,44.21964496,-99999.0,'11111222,11111222,99999999' 
TABS,ioos:station:wmo:42043:1,2017-07-03T03:00:00Z,28.9818,-94.9186,2.0,58.59112142,43.48134888,-99999.0,'11111222,11111222,99999999' 
TABS,ioos:station:wmo:42043:1,2017-07-03T03:30:00Z,28.9818,-94.9186,2.0,59.57755419,43.20928141,-99999.0,'11111222,11111222,99999999' 
TABS,ioos:station:wmo:42043:1,2017-07-03T04:00:00Z,28.9818,-94.9186,2.0,55.66453648,43.33038195,-99999.0,'11111222,11111222,99999999' 
TABS,ioos:station:wmo:42043:1,2017-07-03T04:30:00Z,28.9818,-94.9186,2.0,54.36233661,42.59784971,-99999.0,'11111222,11111222,99999999' 
TABS,ioos:station:wmo:42043:1,2017-07-03T05:00:00Z,28.9818,-94.9186,2.0,58.42998603,42.13613176,-99999.0,'11111222,11111222,99999999' 
TABS,ioos:station:wmo:42043:1,2017-07-03T05:30:00Z,28.9818,-94.9186,2.0,58.17079113,36.55737956,-99999.0,'11111222,11111222,99999999' 
TABS,ioos:station:wmo:42043:1,2017-07-03T06:00:00Z,28.9818,-94.9186,2.0,57.80853942,38.49826619,-99999.0,'11111222,11111222,99999999' 
TABS,ioos:station:wmo:42043:1,2017-07-03T06:30:00Z,28.9818,-94.9186,2.0,51.17142328,37.62398437,-99999.0,'11111222,11111222,99999999' 
TABS,ioos:station:wmo:42043:1,2017-07-03T07:00:00Z,28.9818,-94.9186,2.0,59.25325469,37.59447433,-99999.0,'11111222,11111222,99999999' 
TABS,ioos:station:wmo:42043:1,2017-07-03T07:30:00Z,28.9818,-94.9186,2.0,54.95559911,35.78816145,-99999.0,'11111222,11111222,99999999' 
TABS,ioos:station:wmo:42043:1,2017-07-03T08:00:00Z,28.9818,-94.9186,2.0,52.9023927,36.72229023,-99999.0,'11111222,11111222,99999999' 
TABS,ioos:station:wmo:42043:1,2017-07-03T08:30:00Z,28.9818,-94.9186,2.0,52.79505951,37.95464925,-99999.0,'11111222,11111222,99999999' 
TABS,ioos:station:wmo:42043:1,2017-07-03T09:00:00Z,28.9818,-94.9186,2.0,45.73589917,40.74685264,-99999.0,'11111222,11111222,99999999' 
TABS,ioos:station:wmo:42043:1,2017-07-03T09:30:00Z,28.9818,-94.9186,2.0,52.86314278,41.19444744,-99999.0,'11111222,11111222,99999999' 
TABS,ioos:station:wmo:42043:1,2017-07-03T10:00:00Z,28.9818,-94.9186,2.0,56.29805806,39.88294498,-99999.0,'11111222,11111222,99999999' 
TABS,ioos:station:wmo:42043:1,2017-07-03T10:30:00Z,28.9818,-94.9186,2.0,54.34581297,38.2746143,-99999.0,'11111222,11111222,99999999' 
TABS,ioos:station:wmo:42043:1,2017-07-03T11:00:00Z,28.9818,-94.9186,2.0,54.82076634,38.84490829,-99999.0,'11111222,11111222,99999999' 
TABS,ioos:station:wmo:42043:1,2017-07-03T11:30:00Z,28.9818,-94.9186,2.0,52.98151015,40.07813494,-99999.0,'11111222,11111222,99999999' 
TABS,ioos:station:wmo:42043:1,2017-07-03T12:00:00Z,28.9818,-94.9186,2.0,52.87423226,41.18841099,-99999.0,'11111222,11111222,99999999' 
TABS,ioos:station:wmo:42043:1,2017-07-03T12:30:00Z,28.9818,-94.9186,2.0,54.26866218,40.56600794,-99999.0,'11111222,11111222,99999999' 
TABS,ioos:station:wmo:42043:1,2017-07-03T13:00:00Z,28.9818,-94.9186,2.0,57.55823291,37.43173119,-99999.0,'11111222,11111222,99999999' 
TABS,ioos:station:wmo:42043:1,2017-07-03T13:30:00Z,28.9818,-94.9186,2.0,54.71648633,38.79686843,-99999.0,'11111222,11111222,99999999' 
TABS,ioos:station:wmo:42043:1,2017-07-03T14:00:00Z,28.9818,-94.9186,2.0,56.50804602,40.12170485,-99999.0,'11111222,11111222,99999999' 
TABS,ioos:station:wmo:42043:1,2017-07-03T14:30:00Z,28.9818,-94.9186,2.0,53.25330728,35.36808166,-99999.0,'11111222,11111222,99999999' 
TABS,ioos:station:wmo:42043:1,2017-07-03T15:00:00Z,28.9818,-94.9186,2.0,56.85474778,41.13287858,-99999.0,'11111222,11111222,99999999' 
TABS,ioos:station:wmo:42043:1,2017-07-03T15:30:00Z,28.9818,-94.9186,2.0,55.04254147,38.1172297,-99999.0,'11111222,11111222,99999999' 
TABS,ioos:station:wmo:42043:1,2017-07-03T16:00:00Z,28.9818,-94.9186,2.0,57.26816242,31.18128445,-99999.0,'11111222,11111222,99999999' 
TABS,ioos:station:wmo:42043:1,2017-07-03T16:30:00Z,28.9818,-94.9186,2.0,52.18323934,36.30495834,-99999.0,'11111222,11111222,99999999' 
TABS,ioos:station:wmo:42043:1,2017-07-03T17:00:00Z,28.9818,-94.9186,2.0,55.01530397,32.40553811,-99999.0,'11111222,11111222,99999999' 
TABS,ioos:station:wmo:42043:1,2017-07-03T17:30:00Z,28.9818,-94.9186,2.0,57.1085627,28.85553326,-99999.0,'11111222,11111222,99999999' 
TABS,ioos:station:wmo:42043:1,2017-07-03T18:00:00Z,28.9818,-94.9186,2.0,49.76155367,30.83728263,-99999.0,'11111222,11111222,99999999' 
TABS,ioos:station:wmo:42043:1,2017-07-03T18:30:00Z,28.9818,-94.9186,2.0,48.27975222,25.21429753,-99999.0,'11111222,11111222,99999999' 
TABS,ioos:station:wmo:42043:1,2017-07-03T19:00:00Z,28.9818,-94.9186,2.0,52.37385435,26.06027053,-99999.0,'11111222,11111222,99999999' 
TABS,ioos:station:wmo:42043:1,2017-07-03T19:30:00Z,28.9818,-94.9186,2.0,42.43789982,23.25170316,-99999.0,'11111222,11111222,99999999' 
TABS,ioos:station:wmo:42043:1,2017-07-03T20:00:00Z,28.9818,-94.9186,2.0,38.02291243,23.4587489,-99999.0,'11111222,11111222,99999999' 
TABS,ioos:station:wmo:42043:1,2017-07-03T20:30:00Z,28.9818,-94.9186,2.0,34.86232508,15.18532186,-99999.0,'11111222,11111222,99999999' 
TABS,ioos:station:wmo:42043:1,2017-07-03T21:00:00Z,28.9818,-94.9186,2.0,33.69858802,18.9430119,-99999.0,'11111222,11111222,99999999' 
TABS,ioos:station:wmo:42043:1,2017-07-03T21:30:00Z,28.9818,-94.9186,2.0,17.49155676,17.66687862,-99999.0,'11111222,11111222,99999999' 
TABS,ioos:station:wmo:42043:1,2017-07-03T22:00:00Z,28.9818,-94.9186,2.0,10.62185566,17.46932454,-99999.0,'11111222,11111222,99999999' 
TABS,ioos:station:wmo:42043:1,2017-07-03T22:30:00Z,28.9818,-94.9186,2.0,17.81392,18.95896885,-99999.0,'11111222,11111222,99999999' 
TABS,ioos:station:wmo:42043:1,2017-07-03T23:00:00Z,28.9818,-94.9186,2.0,358.3146608,19.37838487,-99999.0,'11111222,11111222,99999999' 
TABS,ioos:station:wmo:42043:1,2017-07-03T23:30:00Z,28.9818,-94.9186,2.0,7.121277167,18.06938018,-99999.0,'11111222,11111222,99999999' 
TABS,ioos:station:wmo:42043:1,2017-07-04T00:00:00Z,28.9818,-94.9186,2.0,355.5225346,17.80434217,-99999.0,'11111222,11111222,99999999' 
TABS,ioos:station:wmo:42043:1,2017-07-04T00:30:00Z,28.9818,-94.9186,2.0,358.2991111,22.56994683,-99999.0,'11111222,11111222,99999999' 
TABS,ioos:station:wmo:42043:1,2017-07-04T01:00:00Z,28.9818,-94.9186,2.0,355.152155,21.41662205,-99999.0,'11111222,11111222,99999999' 
TABS,ioos:station:wmo:42043:1,2017-07-04T01:30:00Z,28.9818,-94.9186,2.0,355.3248012,28.58511851,-99999.0,'11111222,11111222,99999999' 
TABS,ioos:station:wmo:42043:1,2017-07-04T02:00:00Z,28.9818,-94.9186,2.0,355.409678,34.3602241,-99999.0,'11111222,11111222,99999999' 
TABS,ioos:station:wmo:42043:1,2017-07-04T02:30:00Z,28.9818,-94.9186,2.0,356.2308491,36.65930305,-99999.0,'11111222,11111222,99999999' 
TABS,ioos:station:wmo:42043:1,2017-07-04T03:00:00Z,28.9818,-94.9186,2.0,357.25352,42.77914679,-99999.0,'11111222,11111222,99999999' 
TABS,ioos:station:wmo:42043:1,2017-07-04T03:30:00Z,28.9818,-94.9186,2.0,355.0029287,46.8380401,-99999.0,'11111222,11111222,99999999' 
TABS,ioos:station:wmo:42043:1,2017-07-04T04:00:00Z,28.9818,-94.9186,2.0,359.4042891,47.11254822,-99999.0,'11111222,11144222,99999999' 
TABS,ioos:station:wmo:42043:1,2017-07-04T04:30:00Z,28.9818,-94.9186,2.0,344.1084432,48.46220177,-99999.0,'11111222,11111222,99999999' 
TABS,ioos:station:wmo:42043:1,2017-07-04T05:00:00Z,28.9818,-94.9186,2.0,343.6700002,47.44403545,-99999.0,'11111222,11111222,99999999' 
TABS,ioos:station:wmo:42043:1,2017-07-04T05:30:00Z,28.9818,-94.9186,2.0,346.7785895,45.20835874,-99999.0,'11111222,11111222,99999999' 
TABS,ioos:station:wmo:42043:1,2017-07-04T06:00:00Z,28.9818,-94.9186,2.0,350.3437567,42.20803833,-99999.0,'11111222,11111222,99999999' 
TABS,ioos:station:wmo:42043:1,2017-07-04T06:30:00Z,28.9818,-94.9186,2.0,354.0927072,42.84754952,-99999.0,'11111222,11111222,99999999' 
TABS,ioos:station:wmo:42043:1,2017-07-04T07:00:00Z,28.9818,-94.9186,2.0,356.6709298,35.29957648,-99999.0,'11111222,11111222,99999999' 
TABS,ioos:station:wmo:42043:1,2017-07-04T07:30:00Z,28.9818,-94.9186,2.0,358.8091026,35.11758819,-99999.0,'11111222,11111222,99999999' 
TABS,ioos:station:wmo:42043:1,2017-07-04T08:00:00Z,28.9818,-94.9186,2.0,351.3942758,35.41878598,-99999.0,'11111222,11111222,99999999' 
TABS,ioos:station:wmo:42043:1,2017-07-04T08:30:00Z,28.9818,-94.9186,2.0,354.6549862,31.98910596,-99999.0,'11111222,11111222,99999999' 
TABS,ioos:station:wmo:42043:1,2017-07-04T09:00:00Z,28.9818,-94.9186,2.0,6.421316309,30.49127908,-99999.0,'11111222,11111222,99999999' 
TABS,ioos:station:wmo:42043:1,2017-07-04T09:30:00Z,28.9818,-94.9186,2.0,8.665576014,25.88548049,-99999.0,'11111222,11111222,99999999' 
TABS,ioos:station:wmo:42043:1,2017-07-04T10:00:00Z,28.9818,-94.9186,2.0,15.17231651,24.2243679,-99999.0,'11111222,11111222,99999999' 
TABS,ioos:station:wmo:42043:1,2017-07-04T10:30:00Z,28.9818,-94.9186,2.0,40.45459487,18.20160982,-99999.0,'11111222,11111222,99999999' 
TABS,ioos:station:wmo:42043:1,2017-07-04T11:00:00Z,28.9818,-94.9186,2.0,61.06534994,22.28134646,-99999.0,'11111222,11111222,99999999' 
TABS,ioos:station:wmo:42043:1,2017-07-04T11:30:00Z,28.9818,-94.9186,2.0,81.64614468,24.98510156,-99999.0,'11111222,11111222,99999999' 
TABS,ioos:station:wmo:42043:1,2017-07-04T12:00:00Z,28.9818,-94.9186,2.0,90.19303207,32.6501853,-99999.0,'11111222,11111222,99999999' 
TABS,ioos:station:wmo:42043:1,2017-07-04T12:30:00Z,28.9818,-94.9186,2.0,93.11177108,33.15889172,-99999.0,'11111222,11111222,99999999' 
TABS,ioos:station:wmo:42043:1,2017-07-04T13:00:00Z,28.9818,-94.9186,2.0,96.83909565,37.28530542,-99999.0,'11111222,11111222,99999999' 
TABS,ioos:station:wmo:42043:1,2017-07-04T13:30:00Z,28.9818,-94.9186,2.0,95.14580818,37.35053547,-99999.0,'11111222,11111222,99999999' 
TABS,ioos:station:wmo:42043:1,2017-07-04T14:00:00Z,28.9818,-94.9186,2.0,87.37972958,41.122996,-99999.0,'11111222,11111222,99999999' 
TABS,ioos:station:wmo:42043:1,2017-07-04T14:30:00Z,28.9818,-94.9186,2.0,90.68696523,37.53269774,-99999.0,'11111222,11111222,99999999' 
TABS,ioos:station:wmo:42043:1,2017-07-04T15:00:00Z,28.9818,-94.9186,2.0,90.74969362,43.56372918,-99999.0,'11111222,11111222,99999999' 
TABS,ioos:station:wmo:42043:1,2017-07-04T15:30:00Z,28.9818,-94.9186,2.0,89.90421086,41.87005851,-99999.0,'11111222,11111222,99999999' 
TABS,ioos:station:wmo:42043:1,2017-07-04T16:00:00Z,28.9818,-94.9186,2.0,84.59933798,44.51762011,-99999.0,'11111222,11111222,99999999' 